GW0544 Weather Reports


Display with metric or nautical units.
time (UTC)temp
F
wind
direction
speed
MPH
gust
MPH
rain 1hr
in
rain 24hr
in
rain mn
in
humidity
%
barometer
mb
20260905013103 82 287 2.0 6.0 0.00 0.00 0.00 32 1015.3
20260905011558 84 233 4.0 8.0 0.00 0.00 0.00 30 1015.3
20260905010107 85 223 1.0 8.0 0.00 0.00 0.00 29 1015.2
20260905004616 85 0 3.0 10.0 0.00 0.00 0.00 28 1014.8
20260905003101 86 233 2.0 11.0 0.00 0.00 0.00 27 1015.1
20260905001607 86 288 3.0 9.0 0.00 0.00 0.00 28 1015.0
20260904234604 86 257 5.0 11.0 0.00 0.00 0.00 28 1014.9
20260904233120 86 266 3.0 12.0 0.00 0.00 0.00 30 1015.0
20260904231615 86 265 3.0 11.0 0.00 0.00 0.00 30 1015.1
20260904230112 87 232 4.0 10.0 0.00 0.00 0.00 30 1015.0
20260904224611 87 206 5.0 11.0 0.00 0.00 0.00 28 1015.1
20260904223109 88 223 4.0 11.0 0.00 0.00 0.00 28 1015.2
20260904221605 88 265 5.0 12.0 0.00 0.00 0.00 28 1015.3
20260904220116 88 257 5.0 11.0 0.00 0.00 0.00 28 1015.5
20260904214602 87 273 5.0 13.0 0.00 0.00 0.00 27 1015.6
20260904213111 87 267 3.0 15.0 0.00 0.00 0.00 26 1015.6
20260904211613 87 288 3.0 9.0 0.00 0.00 0.00 26 1015.6
20260904210105 87 296 4.0 10.0 0.00 0.00 0.00 24 1015.7
20260904204605 86 257 3.0 12.0 0.00 0.00 0.00 23 1015.8
20260904203101 85 277 3.0 11.0 0.00 0.00 0.00 23 1015.8
20260904201603 85 317 6.0 11.0 0.00 0.00 0.00 20 1015.9
20260904200057 85 325 4.0 12.0 0.00 0.00 0.00 20 1015.9
20260904194617 84 301 3.0 10.0 0.00 0.00 0.00 20 1016.0
20260904193108 84 323 4.0 11.0 0.00 0.00 0.00 20 1016.1
20260904191558 84 213 3.0 10.0 0.00 0.00 0.00 22 1016.1
20260904190103 84 219 5.0 11.0 0.00 0.00 0.00 21 1016.5
20260904184602 84 249 6.0 12.0 0.00 0.00 0.00 18 1016.7
20260904183118 85 294 1.0 9.0 0.00 0.00 0.00 22 1016.6
20260904181604 84 302 2.0 8.0 0.00 0.00 0.00 23 1016.6
20260904180122 83 183 2.0 7.0 0.00 0.00 0.00 25 1016.6
20260904174609 83 240 2.0 8.0 0.00 0.00 0.00 22 1016.6
20260904173104 82 272 2.0 8.0 0.00 0.00 0.00 24 1016.7
20260904171604 82 246 3.0 10.0 0.00 0.00 0.00 21 1016.5
20260904164600 79 294 1.0 8.0 0.00 0.00 0.00 25 1016.4
20260904163100 77 218 2.0 5.0 0.00 0.00 0.00 28 1016.5
20260904161620 74 231 1.0 4.0 0.00 0.00 0.00 41 1016.5
20260904160059 69 0 0.0 0.0 0.00 0.00 0.00 46 1016.2
20260904154558 66 0 0.0 0.0 0.00 0.00 0.00 53 1016.1
20260904153100 64 0 0.0 0.0 0.00 0.00 0.00 62 1016.2
20260904151605 59 0 0.0 0.0 0.00 0.00 0.00 71 1016.2
20260904150104 55 0 0.0 3.0 0.00 0.00 0.00 77 1016.1
20260904144606 51 116 2.0 6.0 0.00 0.00 0.00 83 1015.9
20260904143106 46 117 2.0 4.0 0.00 0.00 0.00 88 1015.8
20260904141603 42 77 0.0 1.0 0.00 0.00 0.00 83 1015.7
20260904134609 41 77 1.0 4.0 0.00 0.00 0.00 83 1015.6
20260904133115 41 66 0.0 1.0 0.00 0.00 0.00 80 1015.4
20260904131559 42 0 0.0 2.0 0.00 0.00 0.00 81 1015.1
20260904130104 42 0 0.0 3.0 0.00 0.00 0.00 84 1015.0
20260904124606 42 67 0.0 3.0 0.00 0.00 0.00 83 1015.0
20260904123101 42 64 0.0 3.0 0.00 0.00 0.00 82 1014.9
20260904121559 42 0 0.0 0.0 0.00 0.00 0.00 80 1014.9
20260904120111 43 0 0.0 4.0 0.00 0.00 0.00 82 1015.0
20260904114602 43 74 1.0 5.0 0.00 0.00 0.00 84 1015.1
20260904113059 43 0 0.0 0.0 0.00 0.00 0.00 82 1014.9
20260904111600 43 0 0.0 1.0 0.00 0.00 0.00 83 1014.8
20260904110130 43 0 0.0 1.0 0.00 0.00 0.00 81 1014.9
20260904104601 44 0 0.0 3.0 0.00 0.00 0.00 82 1014.9
20260904103100 45 81 2.0 4.0 0.00 0.00 0.00 81 1014.9
20260904101607 45 78 1.0 4.0 0.00 0.00 0.00 85 1015.0
20260904094601 44 0 0.0 0.0 0.00 0.00 0.00 81 1015.0
20260904093057 45 0 0.0 1.0 0.00 0.00 0.00 80 1015.1
20260904091557 46 78 2.0 4.0 0.00 0.00 0.00 83 1015.2
20260904090059 45 0 0.0 2.0 0.00 0.00 0.00 81 1015.2
20260904084559 46 0 0.0 0.0 0.00 0.00 0.00 80 1015.3
20260904083106 47 0 0.0 0.0 0.00 0.00 0.00 79 1015.5
20260904081602 48 0 0.0 2.0 0.00 0.00 0.00 79 1015.6
20260904080106 49 0 0.0 3.0 0.00 0.00 0.00 80 1015.5
20260904074601 49 78 2.0 4.0 0.00 0.00 0.00 82 1015.5
20260904073106 50 78 2.0 4.0 0.00 0.00 0.00 81 1015.5
20260904071604 49 76 2.0 4.0 0.00 0.00 0.00 80 1015.6
20260904070103 50 0 0.0 0.0 0.00 0.00 0.00 79 1015.6
20260904064628 51 0 0.0 5.0 0.00 0.00 0.00 80 1015.5
20260904063108 51 117 1.0 4.0 0.00 0.00 0.00 80 1015.4
20260904061558 52 0 0.0 0.0 0.00 0.00 0.00 79 1015.4
20260904060116 52 0 0.0 0.0 0.00 0.00 0.00 79 1015.5
20260904054557 52 0 0.0 1.0 0.00 0.00 0.00 77 1015.3
20260904053103 53 0 0.0 0.0 0.00 0.00 0.00 76 1015.4
20260904051602 54 0 0.0 0.0 0.00 0.00 0.00 76 1015.6
20260904050104 55 131 1.0 3.0 0.00 0.00 0.00 74 1015.7
20260904044605 56 132 1.0 4.0 0.00 0.00 0.00 72 1015.6
20260904043111 58 0 0.0 0.0 0.00 0.00 0.00 72 1015.5
20260904041605 60 0 0.0 2.0 0.00 0.00 0.00 69 1015.5
20260904040100 61 0 0.0 0.0 0.00 0.00 0.00 71 1015.5
20260904034600 62 171 0.0 2.0 0.00 0.00 0.00 71 1015.4
20260904033100 63 0 0.0 4.0 0.00 0.00 0.00 71 1015.4
20260904031605 64 227 3.0 5.0 0.00 0.00 0.00 68 1015.4
20260904030103 66 229 0.0 3.0 0.00 0.00 0.00 66 1015.2
20260904024609 67 0 0.0 3.0 0.00 0.00 0.00 63 1015.0
20260904023127 68 261 1.0 4.0 0.00 0.00 0.00 60 1014.8
20260904021602 70 0 0.0 2.0 0.00 0.00 0.00 56 1014.7
20260904020104 72 277 1.0 7.0 0.00 0.00 0.00 53 1014.5
20260904014605 74 0 2.0 8.0 0.00 0.00 0.00 49 1014.6